Regional Weather Roundup
Issued by NWS

Home | Current Version | Previous Version | Text Only | Print | Product List | Glossary Off
Versions: 1 2 3 4 5 6 7 8 9 10 11 12 13 14 15 16 17 18 19 20 21 22 23 24 25 26 27 28 29 30 31 32 33 34 35 36 37 38 39 40 41 42 43 44 45 46 47 48 49 50

916
ASUS43 KFSD 221902
RWRSD

WEATHER ROUNDUP FOR SOUTH DAKOTA
NATIONAL WEATHER SERVICE SIOUX FALLS SD
200 PM CDT SUN OCT 22 2017

NOTE: "FAIR" INDICATES FEW OR NO CLOUDS BELOW 12,000 FEET WITH NO
SIGNIFICANT WEATHER AND/OR OBSTRUCTIONS TO VISIBILITY.


SDZ001>005-009-010-012>017-222000-
NORTHWEST AND NORTH CENTRAL SOUTH DAKOTA

CITY           SKY/WX    TMP DP  RH WIND       PRES   REMARKS
BUFFALO          N/A     67  27  22 W25G31    29.73F
MOBRIDGE       CLOUDY    62  30  29 S16G22    29.80F
$$

SDZ012>016-024>037-041>051-057-063-072>074-222000-
SOUTHWEST AND SOUTH CENTRAL SOUTH DAKOTA

CITY           SKY/WX    TMP DP  RH WIND       PRES   REMARKS
RAPID CTY ARPT SUNNY     69  28  21 SW17      29.87F
PIERRE         SUNNY     64  28  25 SW15      29.87F
CUSTER         CLOUDY    52  23  32 SW10G18   29.98F
PHILIP         SUNNY     66  27  23 SW14G24   29.88F
PINE RIDGE     SUNNY     66  27  23 W18       29.95F
SPEARFISH      FAIR      64  28  25 SW15G24   29.88S
WINNER         FAIR      67  28  23 SW18      29.92F
$$

SDZ004>011-016>023-039-040-222000-
NORTHEAST SOUTH DAKOTA

CITY           SKY/WX    TMP DP  RH WIND       PRES   REMARKS
ABERDEEN       SUNNY     66  24  20 S21G28    29.85F
WATERTOWN      SUNNY     62  30  29 SW22G28   29.89F
BROOKINGS      SUNNY     62  29  28 SW20      29.94F
SISSETON         N/A     64  30  27 SW21G28   29.87F
$$

SDZ017-020-022-023-036>040-048>070-222000-
SOUTHEAST SOUTH DAKOTA

CITY           SKY/WX    TMP DP  RH WIND       PRES   REMARKS
SIOUX FALLS    SUNNY     64  33  31 SW16G22   29.97F
HURON          SUNNY     65  31  28 SW17G24   29.90F
CHAMBERLAIN    SUNNY     66  30  26 SW20      29.91F
MITCHELL       SUNNY     66  27  23 SW16G24   29.93F
YANKTON        SUNNY     67  31  26 S12G20    29.98F
$$

ABBREVIATIONS USED IN REMARKS
   TC - TEMPERATURE IN CELSIUS
  WCI - WIND CHILL INDEX
   HX - HEAT INDEX
  VSB - VISIBILITY





USA.gov is the U.S. government's official web portal to all federal, state and local government web resources and services.